Location: Auvainen
(60.5675°N, 22.3344°E)
Time: 20:59:35
(UTC+00:00)

Daily predictions for brighter satellites

Satellite Brightness Start Highest point End
(mag) Time Altitude Azimuth Time Altitude Azimuth Time Altitude Azimuth
Okean 3 Rocket 4.1 21:30:48 10° SSE 21:35:04 48° E 21:39:20 10° NNE
Cosmos 2322 Rocket 3.9 21:30:22 10° W 21:35:38 39° NNW 21:40:56 10° NE
NOSS 2-1 (E) 4.3 21:32:34 10° WNW 21:36:28 61° N 21:41:39 10° E
Cosmos 2228 Rocket 4.2 21:34:02 10° N 21:38:25 41° ENE 21:42:46 10° SE
EO 1 Delta rocket 4.2 21:36:54 10° NNE 21:41:45 81° E 21:47:34 10° S
NOSS 3-3 (A) 4.1 21:37:49 10° SW 21:43:58 72° SE 21:51:04 10° ENE
NOSS 3-3 (C) 4.1 21:37:55 10° SW 21:44:05 72° SE 21:51:11 10° ENE
Cosmos 2369 Rocket 2.3 21:38:43 10° NW 21:44:22 86° NE 21:49:59 10° SE
Cosmos 1825 2.2 21:40:38 10° S 21:44:24 75° E 21:48:13 10° NNE
Cosmos 1340 3.9 21:41:17 10° SSE 21:44:35 30° E 21:47:56 10° NNE
Aureole 2 Rocket 3.4 21:43:32 10° NW 21:45:57 26° WSW 21:48:26 10° S
Cosmos 1980 3.7 21:44:45 10° SSW 21:50:23 71° SE 21:56:02 10° NE
Cosmos 304 Rocket 3.8 21:46:00 10° NNW 21:50:52 89° WSW 21:55:43 10° SSE
COSMOS 2455 3.1 21:45:46 10° NW 21:51:43 61° SW 21:57:39 10° SSE
Cosmos 1076 Rocket 4.1 21:49:16 10° SSW 21:53:30 57° WNW 21:57:44 10° N
Cosmos 1656 Rocket 4.0 21:49:29 10° NW 21:54:55 66° NE 22:00:19 10° SE
Thor Agena Rocket 3.6 21:50:03 10° NNE 21:55:14 86° ESE 22:00:19 10° SSW
Cosmos 1933 3.5 21:51:24 10° NNW 21:55:25 72° W 21:59:26 10° S
ATLAS 2AS CENTAUR R/B 3.9 21:49:32 10° WNW 21:55:56 30° WSW 22:01:55 10° S
COSMOS 2428 3.1 21:52:14 10° SW 21:57:54 69° NW 22:03:38 10° NE
Cosmos 2154 Rocket 4.3 21:51:48 10° SSW 21:57:59 69° WNW 22:04:15 10° NNE
YAOGAN 11 4.3 21:56:14 10° SSE 22:00:37 75° ENE 22:05:05 10° NNW
Cosmos 2151 3.0 21:56:27 10° SSW 22:00:45 90° WNW 22:05:03 10° NNE
Helios 1A 3.0 21:57:56 10° SSE 22:02:06 88° ENE 22:06:17 10° NNW
Cosmos 2341 Rocket 4.1 21:56:12 10° S 22:02:26 87° ESE 22:08:42 10° NNE
USA 215 3.4 21:56:59 10° E 22:03:23 52° SSE 22:09:46 10° SW
Genesis I 3.6 22:02:46 10° SSW 22:06:28 42° SE 22:10:11 10° ENE
SL-4 R/B 0.5 22:04:30 10° S 22:06:30 60° WSW 22:08:35 10° NNW
Cosmos 2237 Rocket 2.3 22:02:42 10° SW 22:08:25 82° SE 22:14:10 10° NE
Cosmos 2219 Rocket 2.9 22:04:01 10° WSW 22:09:33 58° NW 22:15:09 10° NE
Cosmos 1818 4.2 22:05:25 10° W 22:10:51 63° NNW 22:16:18 10° ENE
Cosmos 1151 Rocket 3.5 22:06:55 10° NNW 22:11:11 53° W 22:15:22 10° S
Cosmos 1812 4.0 22:07:49 10° N 22:11:26 36° ENE 22:15:02 10° SE
Cosmos 2360 Rocket 3.9 22:07:32 10° W 22:12:50 39° NNW 22:18:10 10° NE
Cosmos 2263 4.3 22:07:14 10° NW 22:13:00 85° SW 22:18:47 10° SE
Cosmos 1782 2.8 22:09:13 10° NNW 22:13:13 85° ENE 22:17:11 10° SSE
GEOS 3 Rocket 3.9 22:08:19 10° ENE 22:13:42 79° NNW 22:19:07 10° WSW
Cosmos 2344 3.9 22:08:37 10° SSW 22:15:49 54° SE 22:24:11 10° ENE
Cosmos 158 Rocket 4.0 22:11:44 10° SW 22:16:38 82° NW 22:21:38 10° NNE
Cosmos 332 Rocket 4.3 22:13:15 10° NW 22:17:52 47° WSW 22:22:28 10° S
SL-8 Rocket 4.0 22:11:43 10° S 22:17:54 86° E 22:24:06 10° NNE
CZ-4C R/B 2.9 22:11:36 10° WNW 22:18:11 65° SW 22:26:00 10° SE
Helios 1B rocket 4.1 22:16:14 10° NE 22:19:34 23° E 22:22:53 10° SE
Cosmos 1408 Rocket 3.8 22:15:20 10° S 22:19:41 64° E 22:24:05 10° NNE
Cosmos 2112 Rocket 4.2 22:14:50 10° SW 22:20:13 83° WNW 22:25:38 10° NNE
ATLAS 5 CENTAUR R/B 0.8 22:19:39 10° W 22:21:41 83° SSW 22:25:09 10° ESE
Cosmos 1727 Rocket 4.1 22:16:33 10° NNW 22:22:47 78° W 22:29:03 10° S
ALOS 2 3.5 22:19:24 10° SSW 22:23:33 39° W 22:27:42 10° NNW
Cosmos 2333 Rocket 3.2 22:18:20 10° WSW 22:23:55 51° NW 22:29:34 10° NE
Cosmos 1346 Rocket 3.4 22:20:41 10° S 22:24:27 46° E 22:28:14 10° NNE
EO 1 Del DPAF 3.9 22:21:20 10° N 22:25:03 53° WNW 22:28:43 10° SW
SL-16 R/B 3.7 22:22:06 10° ESE 22:27:55 43° NE 22:33:46 10° NNW
GP-B 3.6 22:23:47 10° N 22:28:10 57° W 22:32:31 10° SSW
Cosmos 1500 Rocket 4.2 22:24:44 10° SSE 22:28:56 45° E 22:33:07 10° NNE
Cosmos 292 Rocket 4.4 22:25:01 10° NNW 22:29:48 58° NE 22:34:32 10° SE
Nimbus 7 Rocket 4.5 22:25:07 10° NNE 22:31:08 90° S 22:37:03 10° SSW
NOSS 2-1 (C) 4.0 22:27:52 10° WNW 22:31:56 73° NNE 22:37:25 10° ESE
Cosmos 1606 4.2 22:29:58 10° NNW 22:33:19 28° W 22:36:39 10° SSW
NOSS 0 Rocket 4.2 22:27:37 10° SW 22:33:48 75° NW 22:40:03 10° NE
SL-16 R/B 4.5 22:29:05 10° WNW 22:34:06 30° N 22:39:06 10° NE
RESURS DK-1 2.6 22:32:14 10° NW 22:36:18 55° SW 22:40:21 10° SSE
Cosmos 1633 2.9 22:33:04 10° S 22:36:38 57° E 22:40:12 10° NNE
NOSS 2-1 (D) 4.0 22:32:32 10° WNW 22:36:39 75° NNE 22:42:14 10° ESE
Cosmos 1331 Rocket 4.1 22:33:59 10° NW 22:39:19 73° WSW 22:44:36 10° SSE
Cosmos 1943 Rocket 2.9 22:34:29 10° NW 22:39:48 41° WSW 22:45:04 10° S
ATLAS 5 CENTAUR R/B 2.4 22:36:31 10° W 22:41:10 66° N 22:46:39 10° ENE
Cosmos 1408 4.4 22:40:11 10° WSW 22:43:13 25° WNW 22:46:16 10° N
Landsat 4 4.2 22:40:57 10° NNE 22:44:40 52° ESE 22:48:23 10° S
Cosmos 44 3.4 22:41:55 10° SSW 22:46:07 49° SE 22:50:31 10° ENE
Cosmos 1680 Rocket 4.3 22:43:11 10° SW 22:48:27 56° NW 22:53:42 10° NNE
Cosmos 405 3.8 22:49:18 10° NNW 22:52:39 39° W 22:55:58 10° SSW
SL-16 R/B 2.3 22:47:48 10° SSW 22:53:29 75° SE 22:59:12 10° NE
Lacrosse 5 rocket 2.5 22:52:09 10° W 22:55:16 22° SW 22:58:15 10° SSE
Cosmos 1110 Rocket 4.4 22:52:12 10° NW 22:57:20 53° WSW 23:02:29 10° S
Cosmos 1862 4.1 22:53:56 10° SSE 22:57:41 42° E 23:01:29 10° NNE
Cosmos 389 Rocket 2.9 22:56:35 10° NNW 23:00:07 62° ENE 23:03:36 10° SSE
SeaSat 1 4.5 23:00:03 10° ENE 23:03:05 16° ESE 23:06:06 10° SE
Cosmos 1707 Rocket 3.7 23:01:41 10° NNW 23:06:12 82° ENE 23:10:40 10° SSE
MOZ.5/SAFIR/RUBIN 5/SL-8 4.3 23:05:29 10° SSE 23:10:11 64° ENE 23:14:56 10° NNW
Cosmos 2228 Rocket 3.9 23:12:21 10° NNW 23:16:41 41° W 23:20:59 10° SSW
Resurs 1-4 Rocket 3.7 23:12:42 10° NNE 23:17:10 26° E 23:21:37 10° SE
EP 3 3.5 23:16:19 10° SW 23:18:18 64° SSE 23:20:27 10° ENE
Cosmos 1302 Rocket 4.1 23:13:26 10° NW 23:18:38 66° WSW 23:23:46 10° SSE
Meteor 2-3 Rocket 4.1 23:13:50 10° SSW 23:19:28 63° WNW 23:25:12 10° NNE
Cosmos 1340 3.6 23:16:31 10° SW 23:20:07 42° WNW 23:23:45 10° N
Cosmos 1825 4.4 23:17:32 10° WSW 23:20:23 20° WNW 23:23:16 10° N
ADEOS II 4.4 23:23:02 10° NE 23:26:10 16° E 23:29:18 10° ESE
Spot 1 4.4 23:21:46 10° SSE 23:26:47 84° WSW 23:31:34 10° NNW
Cosmos 1862 Rocket 3.9 23:22:28 10° NNW 23:26:55 70° ENE 23:31:22 10° SSE
SWARM A 4.2 23:23:39 10° N 23:27:01 86° W 23:30:22 10° S
CZ-4 R/B 3.9 23:22:27 10° NNE 23:27:10 83° ESE 23:31:54 10° SSW
NOSS 2-1 (E) 3.9 23:22:53 10° WNW 23:27:16 84° SSW 23:33:21 10° ESE
Cosmos 2369 Rocket 3.3 23:23:10 10° NW 23:27:54 29° WSW 23:32:37 10° SSW
Cosmos 1603 4.2 23:23:09 10° SSW 23:28:37 51° ESE 23:34:10 10° NE
Cosmos 1633 Rocket 3.9 23:28:32 10° SSE 23:32:41 43° E 23:36:54 10° NNE
Cosmos 2123 Rocket 4.1 23:27:32 10° NNW 23:33:44 68° W 23:39:51 10° S
Cosmos 1743 Rocket 4.0 23:30:18 10° SSW 23:34:35 57° WNW 23:38:55 10° N
Sich 1 3.2 23:30:24 10° S 23:34:41 68° E 23:39:02 10° NNE
SL-4 R/B 3.7 23:34:27 10° ESE 23:34:47 10° ESE 23:35:07 10° ESE
DELTA 2 DEB (DPAF) 4.2 23:31:02 10° SSE 23:35:31 85° WSW 23:40:02 10° NNW
IRAS Rocket 4.3 23:30:15 10° SSE 23:35:44 75° WSW 23:41:17 10° NNW
COSMOS 2455 4.4 23:32:30 10° WNW 23:36:38 19° WSW 23:40:44 10° SSW
Cosmos 44 Rocket 4.3 23:32:40 10° S 23:36:48 31° SE 23:41:01 10° ENE
Cosmos 1821 Rocket 4.1 23:31:36 10° SSW 23:37:43 79° WNW 23:43:52 10° NNE
Cosmos 1656 Rocket 4.2 23:33:19 10° NW 23:38:19 39° WSW 23:43:17 10° S
